TimeEST,TemperatureF,Dew PointF,Humidity,Sea Level PressureIn,VisibilityMPH,Wind Direction,Wind SpeedMPH,Gust SpeedMPH,PrecipitationIn,Events,Conditions,WindDirDegrees,DateUTC
12:55 AM,37.9,29.5,72,30.08,10.0,Calm,Calm,-,N/A,,Overcast,0,2012-11-05 05:55:00
1:55 AM,37.9,32.2,80,30.07,10.0,Calm,Calm,-,N/A,,Overcast,0,2012-11-05 06:55:00
2:55 AM,40.3,30.2,67,30.07,10.0,WNW,5.8,-,N/A,,Overcast,290,2012-11-05 07:55:00
3:55 AM,40.6,29.5,64,30.07,10.0,West,5.8,-,N/A,,Overcast,280,2012-11-05 08:55:00
5:55 AM,40.6,24.3,52,30.09,10.0,NW,12.7,-,N/A,,Overcast,310,2012-11-05 10:55:00
6:55 AM,40.6,24.4,53,30.11,10.0,Variable,6.9,-,N/A,,Overcast,0,2012-11-05 11:55:00
7:55 AM,40.8,23.5,50,30.13,10.0,North,9.2,-,N/A,,Overcast,350,2012-11-05 12:55:00
8:55 AM,41.9,23.9,49,30.13,10.0,NNW,8.1,19.6,N/A,,Overcast,340,2012-11-05 13:55:00
9:55 AM,44.6,24.3,45,30.14,10.0,NW,9.2,-,N/A,,Mostly Cloudy,310,2012-11-05 14:55:00
10:55 AM,45.3,23.5,42,30.13,10.0,NW,8.1,-,N/A,,Clear,320,2012-11-05 15:55:00
11:55 AM,47.5,24.4,41,30.12,10.0,WNW,10.4,-,N/A,,Clear,300,2012-11-05 16:55:00
12:55 PM,48.7,24.6,39,30.10,10.0,Variable,5.8,-,N/A,,Clear,0,2012-11-05 17:55:00
1:55 PM,49.1,24.4,38,30.09,10.0,NNW,8.1,17.3,N/A,,Clear,330,2012-11-05 18:55:00
2:55 PM,50.2,25.2,38,30.08,10.0,NNW,9.2,-,N/A,,Clear,340,2012-11-05 19:55:00
3:55 PM,49.3,25.2,39,30.09,10.0,NW,10.4,-,N/A,,Clear,320,2012-11-05 20:55:00
4:55 PM,46.8,25.3,43,30.10,10.0,Variable,3.5,-,N/A,,Clear,0,2012-11-05 21:55:00
5:55 PM,41.2,27.3,58,30.13,10.0,Calm,Calm,-,N/A,,Clear,0,2012-11-05 22:55:00
6:55 PM,36.7,28.8,73,30.14,10.0,Calm,Calm,-,N/A,,Clear,0,2012-11-05 23:55:00
7:55 PM,35.1,28.9,78,30.16,10.0,Calm,Calm,-,N/A,,Clear,0,2012-11-06 00:55:00
8:55 PM,34.0,28.8,81,30.19,10.0,Calm,Calm,-,N/A,,Clear,0,2012-11-06 01:55:00
9:55 PM,32.2,28.8,87,30.21,10.0,Calm,Calm,-,N/A,,Clear,0,2012-11-06 02:55:00
10:55 PM,31.3,29.1,92,30.20,10.0,Calm,Calm,-,N/A,,Clear,0,2012-11-06 03:55:00
11:55 PM,31.6,27.9,86,30.21,10.0,Calm,Calm,-,N/A,,Clear,0,2012-11-06 04:55:00